Weather History for Hazen, ND

Change the Weather History Date:

Monday, December 2, 2013

  Actual Average (KN60) Record (KN60)
Temperature  
Mean Temperature 24 °F -  
Max Temperature 32 °F 29 °F 50 °F (2001)
Min Temperature 17 °F 13 °F -11 °F (2006)
Degree Days  
Heating Degree Days 40    
Moisture  
Dew Point 23 °F    
Average Humidity 92    
Maximum Humidity 100    
Minimum Humidity 80    
Precipitation  
Precipitation 0.31 in - - ()
Sea Level Pressure  
Sea Level Pressure 29.64 in    
Wind  
Wind Speed 8 mph (NE)    
Max Wind Speed 16 mph    
Max Gust Speed 23 mph    
Visibility 6 miles    
Events Rain , Snow    
Averages and records for this station are not official NWS values.
T = Trace of Precipitation, MM = Missing Value Source: NWS Daily Summary

Daily Weather History Graph

Daily Weather History Graph

Search for Another Location

Airport:

Trip Planner

Search our weather history database for the weather conditions in past years. The results will help you decide how hot, cold, wet, or windy it might be!

Date:

Astronomy

Dec. 02, 2013 Rise Set
Actual Time 8:13 AM CST 4:57 PM CST
Civil Twilight 7:38 AM CST 5:32 PM CST
Nautical Twilight 7:00 AM CST 6:11 PM CST
Astronomical Twilight 6:23 AM CST 6:47 PM CST
Moon 7:38 AM CST (12/2) 5:04 PM CST (12/2)
Length of Visible Light 9h 53m
Length of Day
8h 43m
Waning Crescent, 0% of the Moon is Illuminated
Dec 2
Waning Crescent
Dec 2
New
Dec 9
First Quarter
Dec 17
Full
Dec 25
Last Quarter

Hourly Weather History & Observations

Time (CST) Temp. Windchill Dew Point Humidity Pressure Visibility Wind Dir Wind Speed Gust Speed Precip Events Conditions
12:15 AM 32.0 °F 27.5 °F 32.0 °F 100% 29.62 in 4.0 mi NE 4.6 mph - N/A   Overcast
12:35 AM 32.0 °F 26.4 °F 32.0 °F 100% 29.62 in 3.0 mi ENE 5.8 mph - N/A Rain Light Rain
12:55 AM 32.0 °F - 32.0 °F 100% 29.61 in 2.5 mi Calm Calm - N/A Rain Light Rain
1:15 AM 32.0 °F 27.5 °F 32.0 °F 100% 29.60 in 2.5 mi ENE 4.6 mph - N/A Rain Light Rain
1:35 AM 32.0 °F 26.4 °F 32.0 °F 100% 29.60 in 3.0 mi ENE 5.8 mph - N/A Rain Light Rain
1:55 AM 32.0 °F 26.4 °F 32.0 °F 100% 29.59 in 2.5 mi NE 5.8 mph - 0.01 in Rain Light Rain
2:15 AM 32.0 °F 27.5 °F 32.0 °F 100% 29.59 in 3.0 mi ENE 4.6 mph - N/A Rain Light Rain
2:35 AM 32.0 °F 26.4 °F 32.0 °F 100% 29.58 in 2.5 mi NE 5.8 mph - N/A Rain Light Rain
2:55 AM 32.0 °F 26.4 °F 32.0 °F 100% 29.58 in 3.0 mi ENE 5.8 mph - 0.01 in Rain Light Rain
3:15 AM 32.0 °F 25.6 °F 32.0 °F 100% 29.57 in 3.0 mi ENE 6.9 mph - N/A Rain Light Rain
3:35 AM 32.0 °F 26.4 °F 32.0 °F 100% 29.57 in 3.0 mi ENE 5.8 mph - 0.01 in Rain Light Rain
3:55 AM 32.0 °F 25.6 °F 32.0 °F 100% 29.56 in 2.5 mi NE 6.9 mph - 0.01 in Rain Light Rain
4:15 AM 32.0 °F 24.8 °F 32.0 °F 100% 29.55 in 3.0 mi ENE 8.1 mph - N/A Rain Light Rain
4:35 AM 32.0 °F 23.6 °F 32.0 °F 100% 29.54 in 3.0 mi ENE 10.4 mph - 0.01 in Rain Light Rain
4:55 AM 32.0 °F 24.8 °F 32.0 °F 100% 29.54 in 3.0 mi ENE 8.1 mph - 0.02 in Rain Light Rain
5:15 AM 32.0 °F 24.8 °F 32.0 °F 100% 29.53 in 3.0 mi ENE 8.1 mph - N/A Rain Light Rain
5:35 AM 32.0 °F 24.8 °F 32.0 °F 100% 29.53 in 3.0 mi ENE 8.1 mph - N/A Rain Light Rain
5:55 AM 32.0 °F 26.4 °F 32.0 °F 100% 29.52 in 3.0 mi ENE 5.8 mph - N/A   Overcast
6:15 AM 32.0 °F 26.4 °F 32.0 °F 100% 29.53 in 2.5 mi ENE 5.8 mph - N/A Snow Light Snow
6:35 AM 32.0 °F 25.6 °F 32.0 °F 100% 29.53 in 2.0 mi ENE 6.9 mph - 0.03 in Snow Light Snow
6:55 AM 32.0 °F 24.8 °F 32.0 °F 100% 29.52 in 2.0 mi ENE 8.1 mph - 0.07 in Snow Light Snow
7:15 AM 32.0 °F 26.4 °F 32.0 °F 100% 29.52 in 3.0 mi ENE 5.8 mph - 0.01 in Snow Light Snow
7:35 AM 30.2 °F 20.8 °F 30.2 °F 100% 29.52 in 3.0 mi NE 11.5 mph - 0.01 in Snow Light Snow
7:55 AM 28.4 °F 18.5 °F 28.4 °F 100% 29.54 in 4.0 mi NE 11.5 mph - 0.01 in   Overcast
8:15 AM 28.4 °F 19.7 °F 26.6 °F 93% 29.55 in 3.0 mi NE 9.2 mph - N/A   Overcast
8:35 AM 26.6 °F 18.2 °F 26.6 °F 100% 29.55 in 3.0 mi NE 8.1 mph - N/A Snow Light Snow
8:55 AM 26.6 °F 16.2 °F 24.8 °F 93% 29.55 in 1.2 mi NE 11.5 mph - 0.01 in Snow Light Snow
9:15 AM 26.6 °F 17.5 °F 24.8 °F 93% 29.56 in 1.5 mi NE 9.2 mph - N/A Snow Light Snow
9:35 AM 26.6 °F 15.7 °F 24.8 °F 93% 29.56 in 1.5 mi NE 12.7 mph 19.6 mph 0.01 in Snow Light Snow
9:55 AM 26.6 °F 15.2 °F 24.8 °F 93% 29.56 in 2.5 mi NE 13.8 mph 23.0 mph 0.02 in Snow Light Snow
10:15 AM 24.8 °F 13.4 °F 23.0 °F 93% 29.55 in 4.0 mi NE 12.7 mph 20.7 mph N/A   Mostly Cloudy
10:35 AM 24.8 °F 14.0 °F 23.0 °F 93% 29.57 in 5.0 mi NE 11.5 mph 18.4 mph N/A   Overcast
11:15 AM 24.8 °F 12.9 °F 23.0 °F 93% 29.59 in 8.0 mi NE 13.8 mph 19.6 mph N/A   Overcast
11:35 AM 24.8 °F 13.4 °F 23.0 °F 93% 29.60 in 9.0 mi ENE 12.7 mph 18.4 mph N/A   Overcast
11:55 AM 24.8 °F 14.6 °F 21.2 °F 86% 29.60 in 10.0 mi ENE 10.4 mph - N/A   Overcast
12:15 PM 24.8 °F 14.6 °F 21.2 °F 86% 29.61 in 5.0 mi ENE 10.4 mph 19.6 mph N/A Snow Light Snow
12:35 PM 24.8 °F 14.0 °F 21.2 °F 86% 29.61 in 1.5 mi NE 11.5 mph 17.3 mph 0.03 in Snow Light Snow
12:55 PM 23.0 °F 10.6 °F 21.2 °F 93% 29.61 in 2.0 mi NE 13.8 mph - 0.03 in Rain Light Freezing Rain
1:15 PM 23.0 °F 11.1 °F 21.2 °F 93% 29.62 in 1.0 mi NE 12.7 mph 16.1 mph 0.02 in Snow Light Snow
1:35 PM 23.0 °F 9.6 °F 19.4 °F 86% 29.61 in 1.2 mi NE 16.1 mph 19.6 mph 0.04 in Snow Light Snow
1:55 PM 23.0 °F 10.6 °F 21.2 °F 93% 29.61 in 1.2 mi NE 13.8 mph 18.4 mph 0.06 in Snow Light Snow
2:15 PM 24.8 °F 15.3 °F 21.2 °F 86% 29.62 in 1.8 mi NE 9.2 mph - 0.01 in Snow Light Snow
2:35 PM 23.0 °F 12.4 °F 19.4 °F 86% 29.62 in 2.0 mi NE 10.4 mph - 0.04 in Snow Light Snow
2:55 PM 23.0 °F 11.7 °F 19.4 °F 86% 29.64 in 8.0 mi NE 11.5 mph - 0.05 in Snow Light Snow
3:15 PM 23.0 °F 11.7 °F 19.4 °F 86% 29.64 in 4.0 mi NE 11.5 mph 16.1 mph N/A Snow Light Snow
3:35 PM 23.0 °F 10.1 °F 17.6 °F 80% 29.65 in 7.0 mi NE 15.0 mph 19.6 mph 0.01 in Snow Light Snow
3:55 PM 21.2 °F 7.8 °F 17.6 °F 86% 29.66 in 10.0 mi NE 15.0 mph 21.9 mph 0.01 in Snow Light Snow
4:15 PM 21.2 °F 7.3 °F 17.6 °F 86% 29.65 in 10.0 mi NE 16.1 mph - N/A Snow Light Snow
4:35 PM 19.4 °F 6.6 °F 17.6 °F 93% 29.66 in 10.0 mi NE 12.7 mph 21.9 mph N/A Snow Light Snow
4:55 PM 19.4 °F 7.9 °F 15.8 °F 86% 29.69 in 10.0 mi ENE 10.4 mph 20.7 mph N/A   Mostly Cloudy
5:15 PM 19.4 °F 7.9 °F 15.8 °F 86% 29.70 in 10.0 mi ENE 10.4 mph 18.4 mph N/A   Overcast
5:35 PM 19.4 °F 8.6 °F 15.8 °F 86% 29.70 in 10.0 mi NE 9.2 mph 18.4 mph N/A Snow Light Snow
5:55 PM 19.4 °F 7.9 °F 15.8 °F 86% 29.71 in 10.0 mi ENE 10.4 mph 16.1 mph N/A   Overcast
6:15 PM 19.4 °F 6.0 °F 15.8 °F 86% 29.71 in 10.0 mi NE 13.8 mph 19.6 mph N/A   Overcast
6:35 PM 19.4 °F 6.6 °F 15.8 °F 86% 29.72 in 10.0 mi NE 12.7 mph 20.7 mph N/A   Overcast
6:55 PM 19.4 °F 7.2 °F 15.8 °F 86% 29.73 in 10.0 mi ENE 11.5 mph 18.4 mph N/A   Overcast
7:15 PM 19.4 °F 7.9 °F 15.8 °F 86% 29.74 in 10.0 mi NE 10.4 mph 17.3 mph N/A   Overcast
7:35 PM 19.4 °F 6.0 °F 15.8 °F 86% 29.73 in 10.0 mi NE 13.8 mph 20.7 mph N/A   Overcast
7:55 PM 19.4 °F 6.6 °F 15.8 °F 86% 29.74 in 10.0 mi NE 12.7 mph 19.6 mph N/A   Overcast
8:15 PM 19.4 °F 7.9 °F 15.8 °F 86% 29.75 in 10.0 mi NE 10.4 mph 20.7 mph N/A Snow Light Snow
8:35 PM 19.4 °F 7.9 °F 15.8 °F 86% 29.77 in 10.0 mi NE 10.4 mph 20.7 mph N/A   Overcast
8:55 PM 19.4 °F 6.6 °F 15.8 °F 86% 29.78 in 10.0 mi NE 12.7 mph 18.4 mph N/A   Overcast
9:15 PM 19.4 °F 6.0 °F 14.0 °F 80% 29.76 in 10.0 mi NE 13.8 mph 21.9 mph N/A   Overcast
9:35 PM 19.4 °F 6.6 °F 14.0 °F 80% 29.77 in 10.0 mi NE 12.7 mph 23.0 mph N/A   Overcast
9:55 PM 19.4 °F 6.6 °F 14.0 °F 80% 29.79 in 10.0 mi NE 12.7 mph 20.7 mph N/A   Overcast
10:15 PM 17.6 °F 5.0 °F 14.0 °F 86% 29.81 in 10.0 mi NE 11.5 mph 18.4 mph N/A   Overcast
10:35 PM 17.6 °F 5.7 °F 14.0 °F 86% 29.81 in 10.0 mi NE 10.4 mph - N/A   Overcast
10:55 PM 17.6 °F 3.2 °F 15.8 °F 93% 29.81 in 10.0 mi NE 15.0 mph - N/A   Overcast
11:15 PM 19.4 °F 6.0 °F 15.8 °F 86% 29.81 in 10.0 mi NE 13.8 mph 19.6 mph N/A   Overcast
11:35 PM 19.4 °F 7.9 °F 15.8 °F 86% 29.79 in 10.0 mi NE 10.4 mph 19.6 mph N/A   Overcast
11:55 PM 17.6 °F 3.2 °F 15.8 °F 93% 29.81 in 10.0 mi NE 15.0 mph 20.7 mph N/A Snow Light Snow